Location: ČR
(50.0000°N, 15.0000°E)
Time: 16:05:30
(UTC+00:00)

O/OREOS (USA 219) - Visible Passes

Search period start: 31 May 2023 00:00
Search period end: 10 June 2023 00:00
Orbit: 621 x 646 km, 72.0° (Epoch: 22 May)

Date Brightness Start Highest point End Pass type
(mag) Time Alt. Az. Time Alt. Az. Time Alt. Az.
31 May ? 01:15:49 10° NW 01:19:20 23° WSW 01:21:30 16° SW visible
31 May ? 22:19:13 10° N 22:22:20 18° NE 22:25:27 10° E visible
31 May ? 23:57:49 10° NNW 00:02:21 83° WSW 00:05:07 23° SSE visible
01 Jun ? 01:39:41 10° W 01:40:59 11° W 01:42:17 10° WSW visible
01 Jun ? 22:40:47 10° N 22:44:46 30° NE 22:48:47 10° ESE visible
02 Jun ? 00:20:04 10° NW 00:24:18 41° WSW 00:26:13 27° SSW visible
02 Jun ? 21:24:49 10° NNE 21:26:36 12° NE 21:28:23 10° ENE visible
02 Jun ? 23:02:36 10° NNW 23:07:03 55° ENE 23:09:59 20° SE visible
03 Jun ? 00:42:45 10° NW 00:46:06 21° WSW 00:47:24 18° SW visible
03 Jun ? 21:45:55 10° N 21:49:12 19° NE 21:52:29 10° E visible
03 Jun ? 23:24:38 10° NNW 23:29:09 76° WSW 23:31:14 32° SSE visible
04 Jun ? 22:07:32 10° NNW 22:11:38 32° NE 22:15:06 13° ESE visible
04 Jun ? 23:46:55 10° NW 23:51:05 37° WSW 23:52:31 29° SSW visible
05 Jun ? 20:51:25 10° N 20:53:30 13° NE 20:55:35 10° ENE visible
05 Jun ? 22:29:24 10° NNW 22:33:52 61° ENE 22:36:26 25° SE visible
06 Jun ? 00:09:42 10° WNW 00:12:52 19° WSW 00:13:52 18° WSW visible
06 Jun ? 21:12:39 10° N 21:16:04 21° NE 21:19:30 10° E visible
06 Jun ? 22:51:27 10° NNW 22:55:57 69° WSW 22:57:49 34° S visible
07 Jun ? 21:34:19 10° NNW 21:38:29 35° NE 21:41:49 15° ESE visible
07 Jun ? 23:13:47 10° NW 23:17:52 34° WSW 23:19:14 28° SW visible
08 Jun ? 20:18:02 10° N 20:20:23 14° NE 20:22:43 10° ENE visible
08 Jun ? 21:56:11 10° NNW 22:00:42 67° ENE 22:03:16 25° SE visible
08 Jun ? 23:36:40 10° WNW 23:39:37 17° W 23:40:42 16° WSW visible
09 Jun ? 20:39:22 10° N 20:42:57 22° NE 20:46:31 10° E visible
09 Jun ? 22:18:16 10° NNW 22:22:45 62° WSW 22:24:45 31° S visible
